Location: Columbus
(35.2256°N, 82.1549°W)
Time: 19:00:14
(UTC-05:00)

Envisat - Pass Details

Date: 01 December 2021
Orbit: 764 x 766 km, 98.2° (Epoch: 21 January)

Event Time Altitude Azimuth Distance (km) Brightness Sun altitude
Rises 04:08:23 0° 36° (NE) 3,234 6.6 -38.3°
Reaches altitude 10° 04:11:56 10° 62° (ENE) 2,302 6.0 -37.6°
Maximum altitude 04:14:25 14° 92° (E) 2,055 5.9 -37.1°
Drops below altitude 10° 04:16:54 10° 122° (ESE) 2,294 6.1 -36.6°
Sets 04:20:25 0° 147° (SSE) 3,214 6.6 -35.9°
